sat.trackr.live / text

‹ back to catalog

ICEYE-X46

NORAD 63258 · 2025-052BA

PAYLOAD ACTIVE UNKNOWN

§ Identity

Operator
Country
FIN
Launch date
2025-03-15
Launch site
AFWTR
Launch vehicle
Mass (kg)
RCS (m²)

External: N2YO · Heavens-Above · Gunter

§ Orbital elements

Epoch: 2026-09-22T15:29:57.817248Z

Period
96.29 min
Inclination
97.6742°
Eccentricity
0.0001754
Mean motion
14.95552160 rev/d
Perigee alt
579.4 km
Apogee alt
581.9 km
Semi-major
6,958.8 km
B*
1.4785e-4
RAAN
155.6092°
Arg perigee
84.6270°
Mean anomaly
275.5152°
Rev number
8,321

§ Raw data

ICEYE-X461 63258U 25052BA  26265.64580807  .00001583  00000+0  14785-3 0  99912 63258  97.6742 155.6092 0001754  84.6270 275.5152 14.95552160 83212

JSON: /api/v1/satellites/63258 · /tle

For live sub-satellite position, see the globe view (requires WebGL).

§ Visibility from observer

Set your observer location to see the next 7 days of passes ≥ 10°. The values pass through the URL so the page stays shareable.

No JS? Fill the form by hand. The geolocation button needs JavaScript.

§ Radio — SatNOGS DB

ModeDescriptionDownlinkUplink
FM S-band telemetry 2.276 GHz

1 transmitter · refreshed weekly from db.satnogs.org